Regional Weather Roundup
Issued by NWS Charleston, SC

Home | Current Version | Previous Version | Text Only | Print | Product List | Glossary On
Versions: 1 2 3 4 5 6 7 8 9 10 11 12 13 14 15 16 17 18 19 20 21 22 23 24 25 26 27 28 29 30 31 32 33 34 35 36 37 38 39 40 41 42 43 44 45 46 47 48 49 50
000
ASUS42 KCHS 202325
RWRCHS

REGIONAL WEATHER ROUNDUP
NATIONAL WEATHER SERVICE CHARLESTON SC
600 PM EST THU NOV 20 2014

NOTE: "FAIR" INDICATES FEW OR NO CLOUDS BELOW 12,000 FEET WITH NO
SIGNIFICANT WEATHER AND/OR OBSTRUCTIONS TO VISIBILITY.

NOT ALL STATIONS ARE QUALITY CONTROLLED BY THE NATIONAL
WEATHER SERVICE. USE DATA WITH CAUTION...ESPECIALLY
DEWPOINT OBSERVATIONS.

SCZ027-030-031-034>040-042>050-210000-
...SOUTH CAROLINA...

CITY           SKY/WX    TMP DP  RH WIND       PRES   REMARKS
N CHARLESTON   MOCLDY    51  36  56 S8        30.18R
WATERFRONT PRK   N/A     55 N/A N/A SW7         N/A
FORT JOHNSON   NOT AVBL
JOHNS ISLAND   CLEAR     54  43  66 SW8       30.19R
PINOPOLIS        N/A     57  34  41 SW6       30.08R
MONCKS CORNER  FAIR      54  39  58 CALM      30.16R
SUMMERVILLE    FAIR      50  37  62 S3        30.18R
BEAUFORT MCAS  MOCLDY    52  36  54 S6        30.19R
BEAUFORT ARPT  FAIR      54  43  66 S5        30.19S
HILTON HEAD IS CLEAR     57  41  54 S6        30.20
GEORGETOWN     NOT AVBL
WALTERBORO     PTCLDY    54  32  43 SW6       30.18R
ORANGEBURG     PTCLDY    52  35  52 SW7       30.15R
BARNWELL       FAIR      54  37  54 SW5       30.17R
AIKEN          FAIR      52  32  46 SW3       30.18R
MANNING        NOT AVBL
KINGSTREE      NOT AVBL
COLUMBIA       PTCLDY    55  33  43 W7        30.13R
SUMTER         CLEAR     53  33  46 W7        30.11R
FLORENCE       CLEAR     57  32  38 W10       30.11R
MYRTLE BEACH   CLEAR     57  32  38 SW9       30.13R
N MYRTLE BEACH PTCLDY    56  43  61 SW14      30.12R

$$

GAZ063-065-086>088-099>101-113>116-118-119-134-136>141-150-210000-
...GEORGIA...

CITY           SKY/WX    TMP DP  RH WIND       PRES   REMARKS
SAVANNAH ARPT  PTCLDY    58  32  37 SW6       30.20S
HUNTER AAF     CLEAR     53  36  50 CALM      30.19R
FORT STEWART   CLEAR     54  35  49 CALM      30.19S
STATESBORO     NOT AVBL
SYLVANIA       PTCLDY    55  41  59 CALM      30.20R
CLAXTON        FAIR      50  37  62 CALM      30.21R
THOMSON        CLEAR     51  40  66 CALM      30.22R
AUGUSTA-BUSH   CLEAR     55  36  48 SW5       30.16R
AUGUSTA-DANIEL CLEAR     59  35  40 CALM      30.16R
SWAINSBORO     FAIR      59  43  55 SW3       30.20R
VIDALIA        CLEAR     54  41  62 CALM      30.21R
ALMA           CLEAR     50  38  63 CALM      30.21R
WAYCROSS       PTCLDY    53  40  60 CALM      30.23R
JESUP          FAIR      50  41  71 CALM      30.23R
BRUNSWICK      CLEAR     48  36  61 CALM      30.24R
SAINT SIMONS   CLEAR     54  40  59 S5        30.23R

$$

SCZ027-028-034-036>038-045-046-048>050-GAZ119-141-210000-
...LAKE AND SUPPLEMENTAL COASTAL OBSERVATIONS...

STATION/POSITION TIME  TEMP    WIND        PRES    WAVE   SWELL
                       AIR SEA DIR/SP/G            HT/PER HT/PER/DIR
                 (UTC) (F)     (DEG/KT/KT) (MB)    (FT/S) (FT/S/D)
UPR LAKE MARION  NOT AVBL
WINYAH BAY       2300   54     220/  7     1020.0S
LAKE MURRAY      2300   58     240/  8/ 10 1019.3S
ACE BASIN NERRS  2300   54        CALM     1022.0S
FORT PULASKI     2300   55     190/  4/  8 1023.1R
SAPELO ISLAND    NOT AVBL

$$

ANZ835-935-AMZ111-154-330-350-352-354-374-450-454-472-210000-
...C-MAN AND BUOY OBSERVATIONS...

STATION/POSITION TIME  TEMP    WIND        PRES    WAVE   SWELL
                       AIR SEA DIR/SP/G            HT/PER HT/PER/DIR
                 (UTC) (F)     (DEG/KT/KT) (MB)    (FT/S) (FT/S/D)
FOLLY BEACH CMAN 2300   57     220/ 14/ 16 1022.5R
BUOY 41004       2300   62 72  240/ 17/ 21 1021.6R   4/ 5   2/ 8
BUOY 41008       2300   60 65  200/ 10/ 14 1023.2S   1/ 8   2/ 90/ 8
5E ST. MARYS GA  2300      63                N/A     2/ 8
FRYING PAN BUOY  2300   60 65  230/ 21/ 25 1020.5S   5/ 5
BUOY 41025       2300   60     240/ 19/ 25 1017.8R   6/ 6
CAPE LOOKOUT NC  2300   58     240/ 19/ 24 1018.6R
BUOY 41002       2156   65 74  280/ 12/ 16 1022.4    5/ 6   3/310/ 6
BUOY 41010       2300   69 78   70/  8/ 12 1022.4R   3/ 8   3/ 70/ 8
BUOY 41012       NOT AVBL
ST AUGUSTINE FL  2300   59      30/  6/  7 1024.1S
CAPERS NEARSHORE 2200   58     230/ 17/ 21   N/A
FRIPP NEARSHORE  NOT AVBL


$$


USA.gov is the U.S. government's official web portal to all federal, state and local government web resources and services.